Temp_Advection
nan nan nan nan nan nan nan nan nan nan nan nan nan nan nan nan nan nan nan nan nan nan nan nan nan nan nan nan nan nan nan nan nan nan nan nan nan nan nan nan nan nan nan nan nan nan nan nan nan nan nan nan nan nan
nan -0 0 -0 0 0 0 0 0 0 0 0 0 0 0 0 0 0 0 0 0 0 -0 -0 -0 0 0 -0 -0 0 -0 -0 -0 0 -0 -0 0 -0 -0 -0 -0 -0 -0 -0 -0 -0 -0 -0 -0 -0 0 0 -0 nan
nan 0 -0 0 0 0 0 0 0 0 -0 0 0 0 0 0 0 0 0 0 0 0 0 0 0 0 -0 0 -0 0 -0 0 0 0 0 0 0 0 -0 0 0 -0 -0 -0 0 -0 -0 -0 0 0 -0 -0 0 nan
nan 0 0 0 0 0 0 0 0 0 -0 0 0 0 0 0 0 0 0 0 0 0 0 0 0 -0 -0 0 -0 -0 0 0 -0 0 0 -0 0 0 -0 -0 -0 -0 -0 -0 -0 -0 -0 -0 -0 0 0 -0 -0 nan
nan 0 0 0 0 -0 -0 0 0 -0 0 0 0 0 0 0 0 0 0 0 0 -0 0 0 0 -0 -0 -0 -0 -0 0 0 -0 -0 -0 -0 -0 -0 -0 -0 -0 -0 -0 -0 0 -0 -0 -0 -0 0 -0 -0 -0 nan
nan 0 0 -0 0 0 -0 0 0 0 0 0 0 0 0 0 0 0 0 0 0 0 -0 0 0 0 -0 -0 -0 0 0 0 -0 0 0 -0 -0 -0 -0 0 -0 0 0 0 -0 0 -0 -0 0 0 -0 -0 -0 nan
nan 0 0 -0 -0 0 0 0 0 0 0 0 0 0 0 0 0 0 0 0 0 0 -0 0 0 0 0 0 0 0 0 0 0 0 0 -0 -0 -0 -0 0 0 0 0 0 0 -1 -0 -0 0 0 0 -0 -0 nan
nan 0 0 0 -0 0 0 0 0 0 0 0 0 0 0 0 0 0 0 0 0 0 -0 -0 -0 0 0 0 0 -0 -0 -0 0 -0 0 -0 -0 -0 -0 0 0 -0 -0 0 0 0 -0 -0 -0 0 0 0 -0 nan
nan 0 0 0 0 0 -0 0 0 0 0 0 -0 -0 0 0 0 0 -0 0 0 0 -0 -0 -0 -0 0 0 0 0 0 -0 -0 0 -0 -0 -0 -0 -0 -0 -0 0 -0 -0 0 0 0 0 -0 0 0 0 0 nan
nan -0 0 0 0 0 0 0 0 0 0 0 0 0 0 0 0 0 0 -0 -0 0 0 -0 -0 -0 0 0 0 0 0 -0 0 -0 0 -0 -0 -0 -0 -0 -0 -0 0 -0 -1 -0 -0 -0 -0 -0 0 0 0 nan
nan 0 0 0 0 0 0 0 0 -0 -0 0 -0 -0 0 0 0 -0 0 -0 -0 -0 0 0 0 0 0 -0 -0 0 0 -0 0 0 -0 -0 -0 0 0 0 0 0 0 0 -0 -0 -0 0 0 0 0 0 0 nan
nan 0 0 0 0 0 0 -0 -0 -0 -0 -0 -0 -0 0 -0 0 0 0 -0 0 0 -0 0 0 -0 -0 -0 -0 -0 -0 0 -0 0 -0 0 -0 0 0 0 0 0 0 0 0 0 0 0 0 0 -0 -0 -0 nan
nan 0 0 0 0 0 0 0 0 0 0 0 0 0 0 0 0 0 -0 0 -0 -0 -0 -1 0 0 -0 0 -0 -0 -0 -0 -0 -0 0 0 -0 0 1 1 0 0 0 0 0 1 0 0 0 0 0 -0 -0 nan
nan 0 0 0 0 0 0 0 0 0 0 0 0 0 0 -0 0 -0 -0 -0 -0 -0 -1 -1 0 0 -0 -1 -0 -0 -0 -0 0 0 0 -0 -0 -0 0 0 0 0 1 1 1 0 0 0 0 -0 0 0 0 nan
nan 1 0 0 0 0 0 0 0 0 0 -0 0 0 -0 -0 -0 0 -0 -0 0 0 -1 -0 -0 -0 -0 0 -0 -0 0 0 0 0 -0 -1 -0 -0 -0 0 1 0 0 0 0 0 0 0 0 0 0 0 0 nan
nan 0 1 0 0 0 0 0 0 0 -0 0 -0 -0 -0 -0 0 -0 0 -0 0 0 2 -1 -1 -0 -0 0 0 -0 0 1 0 -0 -1 0 -1 -0 0 0 0 0 0 0 0 0 0 0 0 0 0 0 0 nan
nan -0 0 0 0 0 0 0 0 0 0 0 -0 0 -0 -0 -0 0 0 0 0 -1 -0 0 -0 -0 -0 -0 0 0 0 -0 -0 0 -0 -0 -0 0 0 0 0 0 0 0 0 0 0 0 0 0 0 0 0 nan
nan 0 0 -0 -0 -0 0 0 -0 -0 -0 -0 0 0 0 -0 0 0 0 0 0 0 -1 -0 -0 -0 0 -0 0 -0 -1 -0 -0 -0 0 0 1 1 0 1 0 0 0 0 0 0 0 0 0 0 0 0 0 nan
nan -0 0 0 0 -0 -0 0 -0 -0 -0 0 -0 -0 -0 0 -0 -0 -0 0 0 0 0 -0 -0 -0 -0 -1 -1 -0 -0 -0 0 0 0 0 1 1 1 1 0 0 0 0 0 0 0 0 0 0 0 0 0 nan
nan 0 0 0 0 0 -0 0 -0 -0 -0 -0 -0 -0 -0 -0 -0 -0 -0 0 0 0 0 0 -0 -1 -0 -0 0 0 0 0 1 0 -0 0 1 1 1 1 1 1 0 0 0 1 1 0 0 0 0 0 0 nan
nan 0 0 0 0 -0 -0 0 0 -0 -0 0 0 0 0 0 0 0 -0 0 0 0 -0 -1 -1 -0 0 0 0 0 0 0 0 0 0 1 1 1 1 1 0 0 0 0 0 0 0 0 0 0 0 0 0 nan
nan 0 -0 0 0 0 0 0 0 0 0 -0 0 0 0 0 -0 -0 0 0 -0 -0 -0 -0 -0 0 -0 0 0 0 0 0 0 0 1 1 1 0 0 0 0 0 0 0 0 0 0 0 0 0 0 0 0 nan
nan -0 -0 0 0 0 0 0 -0 0 -0 0 0 0 -0 -0 -0 -0 0 -0 -0 -0 -0 -0 0 0 0 0 0 0 0 0 0 0 0 0 0 0 0 0 0 0 0 0 0 0 0 0 0 0 0 0 0 nan
nan 0 -0 0 0 0 0 0 0 0 0 0 0 -0 -0 -0 1 0 0 -0 -0 0 1 0 0 1 1 0 0 1 1 0 0 0 0 0 0 1 0 0 1 0 0 0 0 0 0 0 0 0 0 0 0 nan
nan 0 0 0 0 -0 0 -0 0 0 0 0 -0 -0 -0 0 -0 -0 -0 -0 0 0 0 0 1 0 0 1 1 1 0 0 0 0 0 0 0 0 0 0 0 0 0 0 0 0 0 0 0 0 0 0 0 nan
nan 0 0 -0 -0 -0 -0 -0 -0 0 0 0 0 0 -0 -0 -0 0 0 -0 -0 -0 -0 -0 0 0 0 0 0 0 0 0 0 0 0 0 0 0 0 0 0 0 0 0 0 0 0 0 0 0 0 0 0 nan
nan 0 -0 -0 -0 0 0 -0 -0 -0 0 0 -0 0 0 -0 0 0 0 -0 -0 -0 -0 0 0 0 0 0 0 0 0 0 0 0 0 0 0 0 0 0 0 0 0 0 0 0 0 0 0 0 0 0 0 nan
nan 0 0 0 0 0 0 0 0 0 -0 -0 0 0 0 0 0 -0 0 -0 0 0 -0 0 0 0 0 0 0 0 0 0 0 0 0 0 0 0 0 0 0 0 0 0 0 0 0 0 0 0 0 0 0 nan
nan 0 0 -0 0 -0 0 0 0 0 0 0 0 0 0 0 0 0 0 0 0 0 -0 -0 0 0 0 0 0 0 0 0 0 0 0 0 0 0 0 0 0 0 0 0 0 0 0 0 0 0 0 0 0 nan
nan 0 -0 0 0 0 0 0 0 0 0 0 -0 -0 -0 0 0 0 0 0 0 -0 -0 -0 0 0 0 0 0 0 0 0 0 0 0 0 0 0 0 0 0 0 0 0 0 0 0 0 0 0 0 0 0 nan
nan -0 -0 -0 0 0 0 0 0 -0 -0 -0 0 -0 -0 0 0 0 0 0 0 0 -0 0 0 0 0 0 0 0 0 0 0 0 -0 0 0 0 0 0 0 0 0 0 -0 -0 -0 -0 -0 -0 -0 0 0 nan
nan -0 -0 -0 0 0 0 0 -0 -0 -0 -0 -0 0 0 -0 0 0 0 0 0 0 0 0 0 0 0 0 0 0 0 0 0 0 0 0 0 0 0 0 0 0 0 -0 -0 -0 -0 -0 -0 -0 -0 -0 -0 nan
nan nan nan nan nan nan nan nan nan nan nan nan nan nan nan nan nan nan nan nan nan nan nan nan nan nan nan nan nan nan nan nan nan nan nan nan nan nan nan nan nan nan nan nan nan nan nan nan nan nan nan nan nan nan
Wind_Speed
32 35 31 29 26 27 25 24 21 21 18 14 17 21 20 20 18 15 11 8 7 4 7 5 3 2 2 2 2 4 3 4 4 4 2 2 2 2 1 2 4 4 4 4 3 4 3 20 3 3 7 8 9 9
29 32 37 32 29 28 26 24 24 21 18 14 19 21 20 20 18 15 11 8 8 4 4 4 1 4 5 1 1 3 3 1 2 3 1 1 2 2 2 3 5 4 3 2 5 3 5 10 14 13 11 11 9 11
29 30 34 30 30 28 26 27 24 22 17 15 18 20 20 20 18 15 11 9 7 5 5 5 3 5 3 3 4 1 2 3 3 2 2 1 2 1 2 1 2 2 2 3 2 4 9 9 12 10 11 14 13 13
27 30 32 31 30 28 26 25 25 22 18 15 20 21 19 17 16 13 11 9 7 5 4 3 4 4 2 2 2 1 1 1 4 3 0 0 1 1 1 1 2 2 4 3 4 8 10 9 10 12 12 10 11 11
34 31 30 29 30 28 28 29 25 23 19 16 19 20 19 17 16 16 9 7 6 3 4 5 6 4 3 5 4 3 3 4 2 1 2 1 2 1 2 2 2 4 1 1 2 12 8 8 9 7 7 8 7 6
36 33 33 29 29 29 27 28 27 22 20 17 18 19 19 17 17 16 5 5 6 5 2 2 4 7 4 4 3 2 3 2 1 1 2 3 2 0 2 1 1 3 1 3 4 8 8 14 9 6 8 7 5 6
38 37 35 30 28 27 25 26 24 24 21 19 17 16 18 18 16 6 5 6 10 5 2 2 1 5 7 3 1 0 1 1 1 1 2 2 1 1 2 2 9 7 6 13 13 16 12 12 9 11 7 7 5 6
39 39 36 34 31 28 27 26 26 24 22 20 17 13 15 19 14 8 8 7 11 4 2 2 1 2 5 3 2 1 1 1 1 1 2 2 1 1 1 5 14 10 12 13 12 5 12 13 14 15 10 7 5 5
37 40 38 34 32 27 25 26 28 27 23 20 16 15 15 16 10 9 14 15 8 3 2 2 3 3 5 4 2 1 1 2 0 0 2 1 2 2 2 17 18 16 13 13 10 14 15 12 16 14 10 5 2 3
42 40 38 36 33 28 24 30 29 27 23 20 19 6 5 10 12 12 6 3 1 1 1 2 2 2 4 3 1 1 0 1 1 3 1 2 2 3 3 16 15 17 14 18 17 14 15 15 13 11 8 5 4 5
40 39 38 36 33 27 30 32 30 28 24 22 6 4 20 21 8 2 3 2 3 2 5 5 8 3 5 3 2 3 2 1 1 3 2 2 3 4 10 14 16 17 12 12 9 9 11 7 10 11 11 9 8 6
40 39 38 35 32 28 30 32 32 30 18 7 12 19 18 6 3 2 3 3 4 4 7 8 7 6 5 3 3 2 2 2 2 3 1 3 3 11 15 16 17 17 16 14 12 12 12 9 8 10 10 9 7 6
35 35 33 32 31 28 29 30 27 20 16 14 7 7 6 4 3 6 5 3 3 6 10 9 3 7 4 2 4 1 2 3 3 1 3 4 14 19 20 19 18 15 13 12 13 15 14 11 11 9 9 8 6 4
32 33 32 31 31 29 28 28 24 17 10 2 3 4 3 3 4 4 3 4 5 5 19 22 9 3 3 4 1 3 3 0 2 2 5 3 24 26 23 18 14 16 15 13 15 16 13 12 11 11 9 6 5 3
36 35 31 28 28 28 29 29 19 12 2 2 2 3 3 4 4 2 1 3 2 17 25 12 7 4 2 3 1 2 2 3 4 4 3 10 25 27 25 21 17 15 15 14 15 16 14 13 11 10 9 7 5 3
38 34 31 28 28 29 28 23 15 7 2 2 1 1 2 2 4 2 1 3 8 23 16 5 3 3 1 4 3 4 2 5 4 3 4 13 24 26 23 20 16 13 14 15 16 15 14 13 11 9 8 6 5 3
34 33 33 28 27 25 25 17 7 3 2 0 1 2 2 1 1 2 1 4 11 19 2 4 4 5 2 2 2 3 5 4 3 8 6 15 20 23 21 19 17 16 17 17 17 15 14 14 12 9 7 5 5 5
27 34 31 30 28 24 17 6 3 1 1 4 1 2 2 1 1 2 2 3 9 7 6 3 6 2 5 4 3 4 6 6 7 5 7 13 18 19 20 19 18 17 17 16 16 16 16 13 10 9 9 6 6 5
27 29 29 29 27 14 4 5 1 2 2 1 2 3 2 3 2 3 1 4 5 7 2 4 3 3 3 7 6 6 7 9 7 9 9 12 16 18 19 18 18 18 17 18 19 17 13 10 8 9 8 8 7 8
25 26 25 30 19 4 4 4 6 2 3 4 5 6 3 2 2 3 3 3 6 4 5 3 4 5 4 5 6 7 8 9 9 11 13 16 17 19 20 20 19 18 18 18 17 15 15 14 13 11 11 10 8 9
25 24 24 20 11 3 3 6 6 4 4 5 6 6 3 5 5 4 4 7 5 4 4 8 8 6 7 7 9 10 8 9 10 12 11 16 20 20 20 19 18 20 20 20 19 17 15 11 8 9 9 9 10 12
23 30 23 14 2 1 2 5 3 4 3 3 9 7 3 3 4 6 6 7 5 8 9 11 12 12 9 7 6 6 5 6 8 10 11 11 19 24 23 21 22 21 19 17 15 13 11 10 10 9 9 10 12 15
20 20 11 3 2 1 1 7 5 5 3 3 3 1 2 4 3 6 3 6 7 10 13 13 11 10 8 6 7 7 6 5 6 8 10 10 14 18 20 21 20 17 15 14 12 12 10 10 8 8 9 12 15 16
18 7 4 5 5 2 3 4 5 5 4 3 3 2 2 3 7 2 3 4 6 8 13 14 14 14 12 10 12 9 6 5 4 5 5 8 13 16 16 16 14 12 10 9 9 9 9 10 11 12 13 14 14 13
5 5 3 3 4 2 1 1 3 2 3 4 2 1 2 5 1 2 3 2 4 6 10 12 13 14 13 13 11 9 7 5 5 5 5 6 10 14 15 13 11 12 12 12 11 11 11 11 11 12 13 12 11 10
1 6 7 9 5 5 5 3 4 5 3 3 4 4 6 3 2 5 1 5 2 5 7 5 6 8 7 7 7 8 7 7 6 8 6 8 9 12 14 12 11 11 11 10 9 10 11 12 12 12 12 12 12 12
3 5 5 6 4 3 2 3 4 3 3 5 3 3 3 2 5 0 1 4 2 3 5 4 4 5 6 8 9 9 8 7 5 5 7 9 9 7 6 3 3 7 8 9 10 11 11 11 11 12 12 13 14 14
3 4 4 6 5 3 2 2 4 5 3 3 6 3 5 2 1 2 1 2 0 2 2 5 6 5 4 5 7 8 9 7 7 7 8 9 10 10 10 10 8 8 8 7 7 8 10 10 10 10 11 12 12 13
5 5 7 2 3 2 1 1 2 2 1 2 3 2 2 2 2 2 0 1 3 2 3 4 5 8 8 9 9 9 7 7 7 10 9 9 9 9 10 10 8 7 7 7 8 8 7 6 6 7 8 9 9 10
6 10 5 2 3 3 2 2 3 3 2 4 6 6 5 5 4 2 2 2 2 1 2 3 6 11 11 13 12 11 10 10 10 6 4 5 7 7 7 7 6 6 5 4 4 3 2 3 4 4 5 7 9 11
8 5 4 3 2 2 6 7 7 6 4 4 4 5 8 6 6 5 5 5 5 4 2 4 9 9 9 8 7 6 8 9 8 5 3 2 4 5 5 5 4 3 2 1 1 2 2 3 4 6 8 10 12 14
4 4 6 3 2 8 9 4 2 3 3 3 2 4 5 4 2 3 5 6 5 3 4 5 7 8 6 5 5 5 4 4 5 4 4 4 5 5 5 5 3 3 2 1 1 2 4 5 6 8 11 12 14 16
5 5 6 4 4 4 5 2 3 3 3 3 3 3 3 3 3 3 5 7 5 2 4 5 5 6 6 6 6 5 6 7 7 7 7 7 6 5 5 5 4 3 3 3 3 4 5 7 9 11 13 14 15 17
Wind_Direction
198 183 184 184 180 171 171 164 169 169 172 172 171 168 167 168 170 170 157 158 165 113 141 146 149 165 158 81 126 315 24 350 14 56 61 331 11 3 351 50 344 23 350 20 342 67 49 354 38 79 108 89 90 95
183 188 187 185 179 173 170 165 167 167 168 163 167 165 164 168 172 167 160 167 173 142 153 166 256 262 236 228 126 46 102 104 67 69 306 77 1 355 352 9 9 43 42 58 19 84 81 38 60 88 109 101 100 117
188 191 184 179 176 171 168 166 166 166 164 161 166 163 166 172 175 176 158 163 155 135 106 122 80 73 97 210 171 124 64 58 81 19 306 206 49 43 18 4 90 85 69 87 141 112 109 93 79 98 105 96 100 117
179 170 170 173 171 169 170 170 163 163 160 159 161 163 165 166 172 174 175 167 161 131 128 144 129 108 37 190 143 62 42 32 352 324 292 191 109 49 326 109 94 330 348 123 84 118 108 94 102 115 106 97 94 100
171 170 168 172 172 168 172 169 166 162 160 156 161 162 161 163 161 166 152 155 156 133 156 159 127 121 67 116 108 93 71 43 27 34 37 264 262 88 25 65 44 5 2 69 201 156 113 133 130 143 133 110 95 95
168 167 164 159 161 166 164 164 161 160 158 157 160 163 163 161 161 156 125 164 156 127 131 116 165 166 126 144 109 54 8 9 354 311 277 279 273 121 96 124 112 93 41 149 137 150 136 129 135 156 127 119 107 98
168 167 164 164 162 163 163 161 163 160 157 151 146 153 165 161 159 150 144 172 176 154 70 60 77 157 172 176 178 211 301 296 287 261 253 273 314 66 95 169 152 130 120 121 126 129 117 142 159 166 151 134 113 101
166 166 165 164 159 162 165 165 164 159 156 148 148 147 156 165 160 129 145 144 148 108 78 98 293 134 182 151 128 49 311 318 217 287 261 244 300 75 125 160 153 152 144 146 156 196 163 156 164 168 164 147 125 110
172 168 164 163 159 158 163 163 160 156 153 149 142 136 139 162 163 119 134 150 152 101 123 119 141 214 159 117 130 148 268 14 276 258 262 97 328 218 191 174 170 173 172 160 150 147 154 167 165 168 173 172 170 129
177 161 163 161 160 160 160 160 158 154 152 144 140 129 128 153 146 117 97 127 148 182 169 230 198 159 158 128 132 146 264 174 46 259 260 82 243 214 240 194 183 172 180 175 165 162 169 168 176 181 194 203 178 151
165 161 161 161 160 156 156 157 154 152 149 147 151 116 136 135 122 119 129 160 152 215 208 213 203 149 186 113 201 203 186 298 18 271 124 293 260 192 166 171 173 178 183 187 187 174 176 185 186 192 182 169 156 145
150 154 158 159 158 156 158 159 160 159 155 151 123 135 134 146 126 140 185 163 206 220 187 174 190 180 157 171 124 153 108 35 243 326 81 279 250 167 168 165 171 184 185 185 203 198 187 184 182 174 164 157 154 152
151 154 156 157 161 160 161 163 160 160 162 142 129 159 140 160 150 179 196 188 214 194 175 162 153 161 132 148 76 123 78 231 319 36 237 232 164 167 164 158 157 167 183 193 188 192 190 182 171 170 166 159 158 154
158 155 157 161 161 162 162 159 162 164 153 116 131 122 170 176 223 203 183 185 209 171 156 152 122 123 115 63 103 86 243 309 317 234 242 218 181 180 178 182 188 186 188 193 187 185 185 183 174 168 168 171 174 178
159 156 156 157 162 160 158 168 168 153 97 83 91 170 189 240 248 336 206 274 154 157 150 121 81 100 27 90 172 82 36 251 205 232 238 194 186 185 186 188 191 190 189 189 187 186 184 180 180 180 180 188 200 217
152 148 157 157 157 162 166 166 160 147 53 36 60 20 345 229 152 165 60 173 148 156 144 99 105 67 284 138 137 207 191 227 249 229 264 188 187 191 192 192 193 195 191 187 184 183 182 181 184 190 197 203 215 219
152 153 157 157 159 162 164 163 144 135 143 92 348 306 350 267 273 162 53 122 171 164 140 124 99 190 137 102 234 191 210 222 278 276 229 200 193 192 193 193 194 193 189 187 186 183 183 189 195 200 208 214 207 198
147 152 156 157 155 150 143 132 132 122 152 226 15 33 11 156 149 172 184 116 172 186 156 179 129 124 173 188 251 242 219 238 259 250 198 197 196 196 198 198 197 196 195 194 194 193 197 200 205 204 200 205 214 237
156 158 161 160 160 136 111 164 100 158 223 117 225 280 315 327 262 235 265 171 163 175 144 164 103 194 218 214 226 219 228 229 242 206 192 196 200 203 201 201 204 201 201 199 197 201 204 206 206 211 212 235 252 270
159 161 161 165 148 117 114 130 173 218 194 212 214 222 218 218 257 256 222 188 217 228 199 208 207 202 199 242 250 269 283 243 237 212 208 202 198 203 207 209 210 204 199 198 200 201 203 206 214 230 225 236 257 284
150 161 161 149 154 107 124 160 180 204 177 177 196 191 213 231 228 227 223 217 208 213 232 230 221 217 242 269 270 271 263 255 260 258 253 213 206 203 207 209 206 203 203 202 206 205 207 211 215 234 246 265 277 288
156 166 147 142 121 93 153 181 156 176 191 142 160 181 226 215 222 212 199 196 231 227 219 232 232 223 229 268 270 241 237 253 244 242 239 235 210 203 204 204 200 203 205 209 213 214 220 218 234 249 257 266 275 288
138 145 139 124 122 189 203 177 177 190 153 193 168 186 225 216 211 165 234 228 241 238 238 228 227 219 222 239 243 237 241 246 251 250 249 244 223 218 211 205 204 205 207 206 205 207 214 235 254 266 265 272 286 291
142 129 160 186 198 238 219 204 176 155 146 160 160 234 233 207 164 205 244 247 236 232 227 222 222 219 218 226 238 240 239 219 223 238 246 233 214 209 206 204 203 206 202 197 211 222 237 254 261 263 274 286 293 288
158 176 172 210 207 176 220 258 177 149 178 191 166 264 190 160 118 244 240 269 252 250 227 224 222 224 238 232 230 232 233 235 259 263 244 213 204 189 184 183 196 196 198 214 228 238 245 248 257 270 282 286 292 293
142 198 188 195 192 182 190 170 195 188 164 190 215 167 159 129 182 238 277 345 314 280 242 244 252 244 243 237 241 236 228 217 215 232 238 202 195 203 200 204 207 216 226 232 238 249 251 261 270 273 278 285 291 296
245 226 204 207 198 192 188 206 172 134 168 198 198 159 129 209 235 178 107 1 311 237 227 242 264 256 260 257 227 210 209 207 216 231 203 187 177 194 223 248 275 246 248 250 256 260 263 267 271 278 283 287 289 292
254 202 178 190 191 221 201 141 162 192 204 188 167 184 198 230 203 5 35 345 84 155 245 239 232 233 223 207 205 206 201 199 190 193 193 191 196 206 211 218 238 248 256 260 261 270 274 275 276 276 277 281 287 292
211 192 177 123 118 107 112 144 171 166 183 188 152 144 132 105 54 99 47 155 148 140 315 274 238 207 202 189 181 185 195 200 204 195 200 203 205 206 217 226 235 243 255 269 277 278 281 283 283 284 288 293 301 308
185 179 138 125 157 175 173 143 141 162 167 161 137 125 114 111 93 104 134 120 133 7 314 247 216 194 192 187 180 179 189 196 202 214 244 257 243 237 224 228 239 255 268 274 285 303 307 305 316 317 316 316 315 316
161 143 103 108 134 160 139 136 144 135 122 99 119 141 136 132 107 100 132 115 96 70 49 180 169 168 172 170 176 189 194 205 215 229 248 243 193 198 206 209 218 231 249 275 320 351 352 345 338 330 324 320 318 318
147 140 138 138 147 160 147 139 109 107 100 97 110 127 128 124 101 129 142 152 131 113 130 153 164 155 161 184 194 187 166 161 159 152 140 138 145 150 155 160 161 155 140 101 35 10 355 343 334 328 325 324 324 324
117 109 108 109 130 177 192 170 146 106 106 114 119 140 108 114 119 117 132 164 169 125 137 150 148 145 141 139 134 128 137 140 135 129 129 130 129 127 125 122 113 99 79 55 22 358 345 337 332 330 329 328 329 329
Height
1373 1380 1387 1392 1398 1403 1408 1413 1419 1423 1428 1431 1434 1438 1442 1445 1450 1453 1457 1461 1465 1467 1470 1472 1474 1474 1476 1475 1479 1476 1476 1474 1473 1478 1479 1480 1477 1472 1470 1470 1470 1471 1469 1472 1466 1470 1477 1486 1479 1481 1492 1493 1492 1491
1371 1377 1385 1392 1397 1402 1408 1413 1419 1424 1429 1432 1434 1438 1442 1446 1450 1454 1458 1462 1465 1469 1471 1472 1473 1474 1475 1475 1476 1475 1476 1476 1476 1481 1478 1479 1480 1477 1475 1479 1472 1477 1479 1479 1483 1488 1494 1492 1491 1491 1493 1494 1494 1494
1369 1375 1382 1390 1397 1402 1408 1413 1419 1424 1428 1432 1435 1438 1443 1447 1451 1456 1458 1463 1466 1469 1472 1473 1473 1474 1473 1475 1476 1477 1477 1476 1477 1479 1478 1479 1478 1478 1480 1480 1476 1479 1478 1483 1488 1493 1494 1495 1495 1494 1495 1495 1495 1495
1369 1376 1383 1390 1396 1402 1408 1413 1419 1424 1429 1433 1437 1440 1444 1447 1452 1456 1460 1463 1466 1469 1471 1475 1474 1474 1475 1476 1476 1477 1477 1477 1477 1478 1478 1479 1480 1477 1478 1478 1481 1483 1480 1485 1489 1493 1494 1495 1496 1497 1496 1496 1496 1497
1369 1376 1384 1390 1396 1403 1408 1414 1420 1425 1431 1434 1437 1441 1445 1449 1453 1458 1462 1464 1466 1471 1471 1473 1474 1475 1475 1476 1477 1477 1478 1477 1478 1478 1479 1480 1478 1478 1478 1480 1484 1484 1484 1485 1487 1486 1490 1495 1498 1499 1498 1498 1498 1497
1369 1377 1384 1391 1397 1403 1409 1415 1421 1427 1432 1436 1439 1443 1447 1452 1455 1459 1464 1466 1467 1468 1470 1474 1475 1475 1476 1478 1478 1478 1478 1478 1479 1479 1478 1477 1476 1478 1483 1484 1486 1485 1485 1485 1487 1488 1490 1494 1497 1499 1498 1500 1500 1498
1369 1378 1385 1392 1398 1405 1411 1417 1423 1429 1434 1438 1442 1445 1448 1453 1456 1459 1463 1465 1467 1469 1470 1474 1473 1474 1475 1477 1477 1478 1478 1478 1479 1478 1478 1477 1476 1476 1484 1486 1485 1486 1487 1487 1488 1490 1494 1495 1497 1499 1500 1500 1500 1500
1370 1378 1387 1394 1400 1407 1413 1419 1425 1431 1436 1440 1444 1446 1450 1454 1458 1462 1463 1464 1467 1470 1472 1475 1475 1474 1475 1475 1477 1477 1478 1478 1478 1478 1478 1477 1476 1476 1482 1482 1484 1486 1488 1490 1491 1491 1493 1495 1497 1499 1501 1501 1500 1500
1373 1380 1389 1396 1402 1409 1415 1421 1427 1433 1438 1441 1445 1449 1452 1457 1460 1462 1465 1467 1469 1473 1471 1473 1476 1481 1474 1474 1476 1478 1478 1480 1478 1477 1477 1477 1479 1481 1478 1479 1481 1484 1486 1489 1491 1492 1494 1495 1497 1498 1500 1500 1500 1499
1374 1382 1390 1398 1404 1411 1416 1423 1429 1434 1439 1443 1448 1451 1454 1458 1461 1464 1468 1470 1470 1471 1472 1471 1471 1472 1474 1474 1477 1479 1478 1480 1482 1478 1476 1478 1477 1475 1474 1476 1479 1483 1485 1487 1490 1493 1494 1495 1496 1497 1498 1499 1499 1499
1376 1384 1393 1400 1407 1413 1418 1425 1431 1436 1441 1445 1448 1451 1455 1460 1463 1465 1468 1469 1470 1472 1471 1470 1470 1471 1473 1475 1477 1478 1480 1480 1482 1480 1481 1482 1475 1473 1474 1476 1479 1483 1485 1487 1489 1490 1492 1493 1494 1496 1497 1498 1499 1499
1379 1388 1396 1403 1410 1416 1421 1427 1432 1437 1442 1446 1448 1453 1456 1461 1463 1465 1466 1467 1467 1466 1465 1466 1468 1470 1471 1473 1474 1477 1480 1482 1483 1478 1480 1484 1472 1470 1472 1474 1478 1481 1484 1486 1488 1489 1491 1493 1494 1495 1497 1498 1499 1500
1386 1394 1400 1407 1413 1419 1424 1429 1435 1441 1442 1446 1449 1452 1455 1460 1462 1464 1465 1460 1462 1457 1459 1462 1466 1468 1471 1473 1475 1476 1484 1488 1478 1479 1484 1472 1468 1470 1472 1474 1477 1480 1483 1484 1486 1488 1490 1492 1494 1496 1497 1498 1499 1500
1391 1398 1405 1411 1417 1422 1428 1433 1438 1441 1445 1447 1447 1451 1452 1455 1456 1453 1451 1452 1451 1451 1455 1459 1463 1465 1470 1474 1477 1483 1481 1479 1482 1484 1475 1463 1463 1467 1471 1473 1476 1478 1481 1483 1485 1487 1490 1491 1493 1495 1497 1498 1499 1499
1395 1403 1410 1416 1420 1426 1431 1435 1440 1443 1445 1446 1447 1449 1450 1450 1450 1450 1450 1450 1450 1452 1455 1459 1463 1467 1471 1476 1475 1480 1481 1480 1478 1476 1464 1457 1461 1465 1468 1471 1474 1477 1479 1482 1484 1486 1489 1491 1493 1495 1496 1497 1498 1498
1398 1406 1413 1419 1424 1429 1434 1439 1443 1445 1447 1448 1449 1450 1449 1449 1449 1450 1450 1451 1451 1454 1456 1459 1465 1471 1474 1475 1476 1478 1479 1481 1470 1461 1458 1458 1460 1464 1468 1471 1474 1477 1479 1481 1484 1486 1489 1491 1493 1495 1496 1496 1497 1497
1402 1407 1416 1422 1427 1433 1438 1442 1446 1448 1450 1450 1450 1450 1450 1450 1450 1450 1450 1451 1452 1454 1457 1460 1469 1470 1469 1476 1477 1471 1474 1463 1458 1457 1457 1458 1460 1463 1467 1471 1474 1476 1478 1481 1484 1486 1489 1491 1492 1494 1495 1496 1497 1497
1407 1413 1419 1424 1430 1436 1441 1444 1447 1448 1449 1450 1450 1450 1450 1451 1451 1452 1452 1451 1453 1454 1456 1458 1459 1466 1471 1467 1473 1459 1457 1457 1457 1457 1457 1459 1462 1465 1468 1470 1473 1475 1478 1481 1484 1486 1488 1490 1492 1494 1495 1496 1497 1497
1411 1417 1423 1429 1434 1439 1444 1448 1449 1449 1449 1449 1450 1450 1450 1451 1452 1451 1451 1452 1453 1455 1456 1457 1460 1464 1462 1456 1454 1454 1455 1455 1455 1456 1457 1459 1462 1464 1467 1470 1472 1475 1477 1480 1482 1485 1488 1490 1493 1494 1495 1495 1496 1496
1417 1423 1428 1432 1437 1440 1443 1447 1448 1448 1449 1449 1450 1450 1451 1452 1451 1451 1452 1452 1454 1455 1456 1455 1454 1451 1452 1452 1453 1453 1453 1453 1454 1454 1456 1457 1460 1463 1465 1468 1470 1474 1476 1479 1482 1484 1486 1488 1490 1492 1493 1494 1494 1494
1423 1428 1432 1435 1439 1441 1443 1444 1445 1447 1447 1448 1448 1450 1450 1450 1451 1451 1452 1452 1453 1452 1450 1449 1448 1449 1450 1451 1451 1451 1451 1451 1452 1453 1453 1455 1457 1460 1463 1466 1469 1472 1474 1477 1480 1482 1484 1486 1489 1490 1490 1491 1491 1491
1424 1428 1433 1438 1440 1441 1442 1443 1444 1445 1446 1446 1448 1449 1449 1449 1448 1447 1448 1449 1447 1444 1443 1443 1445 1446 1447 1448 1449 1449 1450 1450 1451 1452 1453 1454 1454 1457 1460 1463 1466 1469 1473 1476 1479 1482 1484 1486 1487 1488 1488 1488 1488 1488
1428 1433 1436 1439 1441 1441 1443 1442 1443 1443 1445 1446 1446 1446 1446 1445 1445 1446 1446 1443 1440 1437 1439 1441 1443 1444 1445 1446 1447 1447 1448 1449 1450 1451 1452 1453 1454 1457 1459 1462 1466 1470 1472 1475 1478 1480 1482 1483 1484 1484 1485 1485 1484 1483
1433 1436 1438 1438 1439 1440 1440 1438 1439 1441 1442 1444 1445 1446 1443 1443 1444 1444 1444 1437 1435 1435 1436 1438 1440 1441 1442 1443 1445 1446 1448 1449 1450 1451 1451 1452 1453 1456 1460 1463 1467 1469 1472 1475 1476 1478 1479 1480 1481 1481 1482 1481 1480 1479
1435 1437 1437 1437 1437 1439 1438 1437 1437 1438 1441 1440 1442 1442 1441 1442 1445 1445 1439 1434 1434 1434 1435 1437 1438 1439 1441 1441 1443 1445 1447 1449 1450 1451 1452 1452 1454 1457 1460 1463 1466 1468 1470 1472 1474 1476 1477 1478 1478 1478 1478 1477 1477 1476
1432 1431 1432 1431 1433 1434 1434 1436 1436 1437 1437 1438 1437 1437 1439 1441 1444 1439 1434 1434 1433 1434 1435 1437 1438 1439 1440 1442 1444 1445 1447 1448 1450 1451 1452 1453 1455 1458 1460 1462 1465 1467 1469 1470 1472 1473 1474 1475 1475 1475 1474 1474 1473 1473
1430 1428 1427 1428 1428 1429 1430 1430 1431 1432 1436 1437 1434 1435 1437 1441 1433 1434 1434 1433 1433 1434 1435 1437 1438 1439 1440 1441 1443 1444 1447 1448 1450 1452 1453 1455 1457 1459 1462 1463 1464 1467 1467 1469 1470 1471 1471 1472 1472 1472 1471 1471 1470 1469
1425 1424 1425 1425 1426 1427 1427 1427 1428 1429 1430 1429 1431 1431 1433 1430 1434 1435 1434 1434 1434 1435 1436 1437 1438 1439 1440 1441 1443 1445 1447 1448 1450 1452 1454 1455 1457 1459 1461 1462 1464 1465 1466 1467 1468 1468 1468 1468 1468 1468 1468 1467 1467 1466
1421 1422 1423 1424 1425 1426 1426 1427 1427 1427 1428 1428 1429 1433 1434 1434 1435 1435 1435 1434 1435 1436 1437 1437 1438 1439 1440 1442 1444 1446 1447 1449 1451 1452 1454 1455 1457 1459 1460 1461 1463 1464 1465 1466 1466 1466 1466 1466 1466 1466 1465 1465 1464 1463
1418 1419 1420 1422 1423 1424 1426 1426 1427 1427 1427 1428 1429 1431 1434 1435 1436 1436 1436 1436 1436 1436 1437 1437 1437 1439 1440 1442 1444 1446 1448 1450 1452 1454 1454 1456 1457 1458 1459 1461 1462 1463 1463 1463 1464 1464 1464 1464 1464 1464 1464 1463 1462 1461
1415 1417 1419 1421 1423 1424 1424 1425 1426 1426 1427 1428 1429 1430 1433 1435 1436 1436 1437 1437 1437 1437 1438 1438 1439 1441 1443 1445 1446 1447 1449 1450 1452 1453 1454 1455 1456 1457 1459 1460 1461 1462 1462 1463 1463 1463 1463 1463 1463 1463 1462 1461 1460 1458
1414 1415 1418 1421 1422 1423 1424 1425 1425 1426 1428 1429 1430 1431 1433 1434 1435 1437 1437 1438 1439 1440 1441 1442 1443 1444 1445 1446 1447 1448 1449 1450 1452 1453 1454 1455 1456 1457 1459 1460 1461 1462 1462 1463 1463 1463 1463 1463 1462 1461 1460 1459 1457 1455
1415 1416 1417 1419 1422 1422 1424 1424 1425 1426 1428 1429 1430 1431 1432 1434 1436 1438 1438 1439 1441 1442 1442 1443 1444 1445 1446 1447 1448 1449 1450 1452 1453 1454 1455 1456 1457 1458 1459 1460 1461 1462 1462 1463 1463 1463 1462 1462 1461 1460 1458 1456 1454 1452